Find Starlink 11310

NORAD ID: 61212 Int'l Des: 2024-171 Owner: SPXS Country: US Constellation: starlink operational
又名: STARLINK-11310 [DTC] celestrak
LEOCIRCULAR

当前视图

正在加载3D地球...

About Starlink 11310

Starlink 11310 (NORAD 61212) is a starlink constellation satellite (v2 mini d2c) launched Sep 20, 2024 by SPXS of US. It operates in LEO, CIRCULAR orbit with a mass of 960.00 kg.

即将过境

Passes for default location (London). Set your location on the main map for personalized predictions.

高度历史

Loading altitude history...

两行轨道根数

1 61212U 24171N 26263.25213224 -.00000692 00000-0 -86054-6 0 9995
2 61212 53.1583 297.3764 0000463 53.0930 307.0130 15.69703934114951
Epoch: Sep 20, 2026 • Age: 22 hours

当前状态

高度 360.3 km
远地点 / 近地点 N/A
速度 7.69 km/s
星下点 4.73°N, 46.5°E
发射日期 Sep 20, 2024
运行时间 1.9 years
类型 internet

技术详情

分类 Payload
质量 960.00 kg
干质量 910.00 kg
长度 0.30 m
跨度 29.00 m
形状 ? Box + pan
制造商 SPXS
平台类型 Starlink V2MD
阶段状态 In Orbit
所有者/国家 SPXS/US

Most Searched